Terminal Aerodrome Forecast
Issued by NWS Salt Lake City, UT

Home | Current Version | Previous Version | Text Only | Print | Product List | Glossary On
Versions: 1 2 3 4 5 6 7 8 9 10 11 12 13 14 15 16 17 18 19 20 21 22 23 24 25 26 27 28 29 30 31 32 33 34 35 36 37 38 39 40 41 42 43 44 45 46 47 48 49 50
362
FTUS45 KSLC 091735
TAFSLC
TAF
KSLC 091735Z 0918/1024 15004KT 4SM BR BCFG SKC
     FM091900 33006KT 5SM HZ SKC
     FM100300 15004KT 3SM BR SKC
     FM101000 15004KT 1SM BR BCFG FEW002
     FM101800 33004KT 3SM HZ SCT200=

USA.gov is the U.S. government's official web portal to all federal, state and local government web resources and services.